Weather History for West Palm Beach, FL

Change the Weather History Date:

Friday, November 19, 2010

  Actual Average Record
Temperature  
Mean Temperature 69 °F 72 °F  
Max Temperature 79 °F 80 °F 88 °F (1902)
Min Temperature 59 °F 65 °F 40 °F (1923)
Degree Days  
Heating Degree Days 0 0  
Month to date heating degree days 9 0  
Since 1 July heating degree days 9 1  
Cooling Degree Days 4 8  
Month to date cooling degree days 137 169  
Year to date cooling degree days 3905 3790  
Growing Degree Days 20 (Base 50)    
Moisture  
Dew Point 55 °F    
Average Humidity 65    
Maximum Humidity 84    
Minimum Humidity 45    
Precipitation  
Precipitation 0.00 in 0.14 in 1.80 in (1987)
Month to date precipitation 1.10 3.30  
Year to date precipitation 51.81 57.50  
Snow  
Snow 0.00 in - - ()
Month to date snowfall 0.0  
Since 1 July snowfall 0.0  
Since 1 September snowfall 0.0  
Snow Depth 0.00 in    
Sea Level Pressure  
Sea Level Pressure 30.14 in    
Wind  
Wind Speed 11 mph (NE)    
Max Wind Speed 20 mph    
Max Gust Speed 24 mph    
Visibility 10 miles    
Events      
T = Trace of Precipitation, MM = Missing Value Source: NWS Daily Summary

Daily Weather History Graph

Daily Weather History Graph

Search for Another Location

Airport:

Trip Planner

Search our weather history database for the weather conditions in past years. The results will help you decide how hot, cold, wet, or windy it might be!

Date:

Astronomy

Nov. 19, 2010 Rise Set
Actual Time 6:42 AM EST 5:28 PM EST
Civil Twilight 6:18 AM EST 5:53 PM EST
Nautical Twilight 5:49 AM EST 6:21 PM EST
Astronomical Twilight 5:22 AM EST 6:49 PM EST
Moon 3:56 PM EST (11/19) 4:43 AM EST (11/19)
Length of Visible Light 11h 35m
Length of Day
10h 45m
Waxing Gibbous, 96% of the Moon is Illuminated
Nov 19
Waxing Gibbous
Nov 21
Full
Nov 28
Last Quarter
Dec 5
New
Dec 13
First Quarter

Hourly Weather History & Observations

Time (EST) Temp. Dew Point Humidity Pressure Visibility Wind Dir Wind Speed Gust Speed Precip Events Conditions
12:53 AM 64.9 °F 55.9 °F 73% 30.10 in 10.0 mi NNW 5.8 mph - N/A   Mostly Cloudy
1:53 AM 64.0 °F 57.0 °F 78% 30.08 in 10.0 mi North 5.8 mph - N/A   Mostly Cloudy
2:53 AM 63.0 °F 55.9 °F 78% 30.08 in 10.0 mi NNW 6.9 mph - N/A   Mostly Cloudy
3:53 AM 61.0 °F 55.9 °F 83% 30.07 in 10.0 mi NNW 8.1 mph - N/A   Overcast
4:53 AM 60.1 °F 55.9 °F 86% 30.08 in 10.0 mi NNW 5.8 mph - N/A   Mostly Cloudy
5:53 AM 60.1 °F 55.9 °F 86% 30.09 in 10.0 mi NNW 5.8 mph - N/A   Mostly Cloudy
6:53 AM 62.1 °F 57.0 °F 84% 30.11 in 10.0 mi NNW 4.6 mph - N/A   Mostly Cloudy
7:53 AM 73.0 °F 55.9 °F 55% 30.14 in 10.0 mi NE 11.5 mph - N/A   Mostly Cloudy
8:53 AM 73.9 °F 53.1 °F 48% 30.16 in 10.0 mi NE 10.4 mph - N/A   Mostly Cloudy
9:53 AM 75.9 °F 53.1 °F 45% 30.18 in 10.0 mi NE 11.5 mph - N/A   Mostly Cloudy
10:53 AM 75.9 °F 57.9 °F 54% 30.17 in 10.0 mi NE 15.0 mph 21.9 mph N/A   Mostly Cloudy
11:53 AM 77.0 °F 55.9 °F 48% 30.17 in 10.0 mi ENE 15.0 mph - N/A   Mostly Cloudy
12:53 PM 77.0 °F 55.9 °F 48% 30.14 in 10.0 mi ENE 16.1 mph 23.0 mph N/A   Mostly Cloudy
1:53 PM 79.0 °F 55.9 °F 45% 30.13 in 10.0 mi NE 13.8 mph - N/A   Mostly Cloudy
2:53 PM 79.0 °F 55.9 °F 45% 30.12 in 10.0 mi East 15.0 mph 23.0 mph N/A   Mostly Cloudy
3:53 PM 77.0 °F 55.0 °F 47% 30.13 in 10.0 mi ENE 13.8 mph - N/A   Mostly Cloudy
4:53 PM 75.9 °F 54.0 °F 46% 30.14 in 10.0 mi ENE 11.5 mph 17.3 mph N/A   Mostly Cloudy
5:53 PM 75.0 °F 55.0 °F 50% 30.14 in 10.0 mi ENE 9.2 mph 19.6 mph N/A   Mostly Cloudy
6:53 PM 75.0 °F 54.0 °F 48% 30.16 in 10.0 mi ENE 11.5 mph 19.6 mph N/A   Scattered Clouds
7:53 PM 75.0 °F 54.0 °F 48% 30.17 in 10.0 mi ENE 13.8 mph - N/A   Scattered Clouds
8:53 PM 75.0 °F 54.0 °F 48% 30.19 in 10.0 mi East 12.7 mph - N/A   Mostly Cloudy
9:53 PM 73.9 °F 54.0 °F 50% 30.19 in 10.0 mi East 12.7 mph - N/A   Scattered Clouds
10:53 PM 73.9 °F 53.1 °F 48% 30.20 in 10.0 mi East 15.0 mph - N/A   Scattered Clouds
11:53 PM 73.9 °F 52.0 °F 46% 30.19 in 10.0 mi East 11.5 mph - N/A   Mostly Cloudy